Location: Pel�-Koumbol�
(14.9505°N, 3.0798°W)
Time: 18:24:22
(UTC+00:00)

USA 267 - Pass Details

Date: 17 February 2020
Orbit: 1101 x 1107 km, 123.0° (Epoch: 30 March)

Event Time Altitude Azimuth Distance (km) Brightness Sun altitude
Rises 05:23:42 0° 151° (SSE) 3,908 6.7 -18.0°
Reaches altitude 10° 05:26:12 10° 154° (SSE) 2,950 6.0 -17.4°
Maximum altitude 05:32:38 62° 234° (SW) 1,219 3.3 -15.9°
Enters shadow 05:38:31 13° 313° (NW) 2,745 4.9 -14.5°
